When you browse on this site, cookies collect data to enhance your experience and personalize the content and advertising you see.
Visit our Privacy Policy to learn more. By continuing to use the site, you agree to this use of cookies and data.
  • en France
  • Liste des pays
  • À 7 jours
  • Température de l'eau
  • Carte météo
  • Widgets météo
  • user-avatar
    Se connecter

    Météo par heure à Strasbourg

    Ce jour, 9 Avril, Jeudi

    Heure Température Précipitation Vent Pression Humidité
    00:00 +14°C° 0 mm 1 m/s 754 mmHg 64%
    01:00 +14°C° 0 mm 1 m/s 754 mmHg 63%
    02:00 +13°C° 0 mm 1 m/s 754 mmHg 64%
    03:00 +13°C° 0 mm 1 m/s 753 mmHg 65%
    04:00 +13°C° 0 mm 1 m/s 753 mmHg 66%
    05:00 +13°C° 0 mm 1 m/s 754 mmHg 67%
    06:00 +13°C° 0 mm 1 m/s 754 mmHg 68%
    07:00 +13°C° 0 mm 0 m/s 754 mmHg 67%
    08:00 +15°C° 0 mm 0 m/s 754 mmHg 61%
    09:00 +17°C° 0 mm 0 m/s 754 mmHg 56%
    10:00 +19°C° 0 mm 0 m/s 754 mmHg 50%
    11:00 +22°C° 0 mm 1 m/s 754 mmHg 45%
    12:00 +23°C° 0 mm 1 m/s 754 mmHg 41%
    13:00 +24°C° 0 mm 2 m/s 754 mmHg 36%
    14:00 +24°C° 0 mm 2 m/s 754 mmHg 37%
    15:00 +24°C° 0 mm 2 m/s 753 mmHg 37%
    16:00 +24°C° 0 mm 2 m/s 753 mmHg 37%
    17:00 +21°C° 0 mm 2 m/s 753 mmHg 43%
    18:00 +19°C° 0 mm 2 m/s 753 mmHg 49%
    19:00 +18°C° 0 mm 2 m/s 753 mmHg 55%
    20:00 +18°C° 0 mm 1 m/s 754 mmHg 55%
    21:00 +16°C° 0 mm 1 m/s 754 mmHg 56%
    22:00 +15°C° 0 mm 1 m/s 755 mmHg 56%
    23:00 +14°C° 0 mm 1 m/s 755 mmHg 58%

    Demain, 10 Avril, Vendredi

    Heure Température Précipitation Vent Pression Humidité
    00:00 +14°C° 0 mm 1 m/s 755 mmHg 60%
    01:00 +13°C° 0 mm 1 m/s 755 mmHg 62%
    02:00 +13°C° 0 mm 1 m/s 755 mmHg 65%
    03:00 +12°C° 0 mm 1 m/s 755 mmHg 68%
    04:00 +12°C° 0 mm 1 m/s 754 mmHg 71%
    05:00 +12°C° 0 mm 1 m/s 755 mmHg 73%
    06:00 +12°C° 0 mm 1 m/s 755 mmHg 75%
    07:00 +12°C° 0 mm 1 m/s 755 mmHg 77%
    08:00 +14°C° 0 mm 1 m/s 755 mmHg 71%
    09:00 +16°C° 0 mm 2 m/s 755 mmHg 64%
    10:00 +18°C° 0 mm 2 m/s 755 mmHg 58%
    11:00 +19°C° 0 mm 2 m/s 755 mmHg 55%
    12:00 +21°C° 0 mm 3 m/s 755 mmHg 51%
    13:00 +22°C° 0 mm 3 m/s 754 mmHg 48%
    14:00 +22°C° 0 mm 3 m/s 754 mmHg 48%
    15:00 +22°C° 0 mm 3 m/s 754 mmHg 48%
    16:00 +22°C° 0 mm 3 m/s 753 mmHg 48%
    17:00 +20°C° 0 mm 3 m/s 753 mmHg 54%
    18:00 +19°C° 0 mm 3 m/s 753 mmHg 60%
    19:00 +17°C° 0 mm 2 m/s 753 mmHg 66%
    20:00 +16°C° 0 mm 2 m/s 753 mmHg 67%
    21:00 +15°C° 0 mm 2 m/s 754 mmHg 69%
    22:00 +14°C° 0 mm 2 m/s 754 mmHg 70%
    23:00 +14°C° 0 mm 2 m/s 754 mmHg 72%

    Après-demain, 11 Avril, Samedi

    Heure Température Précipitation Vent Pression Humidité
    00:00 +13°C° 0 mm 2 m/s 754 mmHg 74%
    01:00 +13°C° 0 mm 1 m/s 754 mmHg 76%
    02:00 +12°C° 0 mm 1 m/s 754 mmHg 77%
    03:00 +12°C° 0 mm 1 m/s 754 mmHg 79%
    04:00 +11°C° 0 mm 1 m/s 754 mmHg 80%
    05:00 +11°C° 0 mm 1 m/s 754 mmHg 79%
    06:00 +12°C° 0 mm 1 m/s 755 mmHg 79%
    07:00 +12°C° 0 mm 1 m/s 755 mmHg 79%
    08:00 +14°C° 0 mm 1 m/s 754 mmHg 73%
    09:00 +16°C° 0 mm 2 m/s 754 mmHg 67%
    10:00 +18°C° 0 mm 2 m/s 754 mmHg 61%
    11:00 +19°C° 0 mm 2 m/s 754 mmHg 58%
    12:00 +20°C° 0 mm 2 m/s 754 mmHg 55%
    13:00 +21°C° 0 mm 2 m/s 754 mmHg 51%
    14:00 +23°C° 0 mm 2 m/s 753 mmHg 51%
    15:00 +23°C° 0 mm 2 m/s 753 mmHg 50%
    16:00 +22°C° 0 mm 3 m/s 752 mmHg 50%
    17:00 +20°C° 0 mm 2 m/s 752 mmHg 56%
    18:00 +19°C° 0 mm 2 m/s 752 mmHg 61%
    19:00 +17°C° 0 mm 2 m/s 752 mmHg 67%
    20:00 +16°C° 0 mm 2 m/s 752 mmHg 68%
    21:00 +15°C° 0 mm 1 m/s 752 mmHg 68%
    22:00 +14°C° 0 mm 1 m/s 752 mmHg 69%
    23:00 +13°C° 0 mm 1 m/s 752 mmHg 71%

    12 Avril, Dimanche

    Heure Température Précipitation Vent Pression Humidité
    00:00 +13°C° 0 mm 1 m/s 752 mmHg 73%
    01:00 +12°C° 0 mm 1 m/s 752 mmHg 75%
    02:00 +12°C° 0 mm 1 m/s 752 mmHg 76%
    03:00 +12°C° 0 mm 1 m/s 751 mmHg 77%
    04:00 +11°C° 0 mm 1 m/s 751 mmHg 79%
    05:00 +12°C° 0 mm 1 m/s 751 mmHg 79%
    06:00 +12°C° 0 mm 1 m/s 751 mmHg 78%
    07:00 +12°C° 0 mm 0 m/s 750 mmHg 78%
    08:00 +15°C° 0 mm 1 m/s 750 mmHg 72%
    09:00 +18°C° 0 mm 1 m/s 750 mmHg 66%
    10:00 +20°C° 0 mm 1 m/s 749 mmHg 60%
    11:00 +21°C° 0.1 mm 1 m/s 749 mmHg 57%
    12:00 +21°C° 0.1 mm 2 m/s 748 mmHg 53%
    13:00 +23°C° 0.1 mm 2 m/s 748 mmHg 49%
    14:00 +23°C° 0 mm 1 m/s 748 mmHg 47%
    15:00 +24°C° 0 mm 1 m/s 747 mmHg 45%
    16:00 +24°C° 0 mm 1 m/s 747 mmHg 43%
    17:00 +22°C° 0.1 mm 1 m/s 746 mmHg 49%
    18:00 +20°C° 0.1 mm 1 m/s 746 mmHg 56%
    19:00 +17°C° 0.1 mm 2 m/s 746 mmHg 63%
    20:00 +16°C° 0.2 mm 2 m/s 746 mmHg 65%
    21:00 +15°C° 0.2 mm 2 m/s 746 mmHg 66%
    22:00 +14°C° 0.2 mm 1 m/s 747 mmHg 68%
    23:00 +14°C° 0.1 mm 2 m/s 747 mmHg 70%

    13 Avril, Lundi

    Heure Température Précipitation Vent Pression Humidité
    00:00 +14°C° 0.1 mm 2 m/s 747 mmHg 71%
    01:00 +14°C° 0.1 mm 2 m/s 747 mmHg 73%
    02:00 +13°C° 0 mm 2 m/s 747 mmHg 73%
    03:00 +13°C° 0 mm 2 m/s 746 mmHg 74%
    04:00 +12°C° 0 mm 2 m/s 746 mmHg 74%
    05:00 +12°C° 0 mm 2 m/s 746 mmHg 74%
    06:00 +12°C° 0 mm 2 m/s 747 mmHg 74%
    07:00 +12°C° 0 mm 2 m/s 747 mmHg 74%
    08:00 +14°C° 0 mm 2 m/s 747 mmHg 64%
    09:00 +16°C° 0 mm 2 m/s 747 mmHg 54%
    10:00 +18°C° 0 mm 2 m/s 747 mmHg 44%
    11:00 +19°C° 0 mm 3 m/s 746 mmHg 43%
    12:00 +20°C° 0 mm 3 m/s 746 mmHg 42%
    13:00 +21°C° 0 mm 3 m/s 746 mmHg 41%
    14:00 +21°C° 0 mm 3 m/s 745 mmHg 42%
    15:00 +21°C° 0 mm 2 m/s 745 mmHg 43%
    16:00 +21°C° 0 mm 2 m/s 745 mmHg 44%
    17:00 +19°C° 0 mm 2 m/s 745 mmHg 50%
    18:00 +18°C° 0 mm 2 m/s 745 mmHg 56%
    19:00 +16°C° 0 mm 2 m/s 745 mmHg 62%
    20:00 +16°C° 0.1 mm 2 m/s 746 mmHg 67%
    21:00 +15°C° 0.1 mm 2 m/s 746 mmHg 72%
    22:00 +13°C° 0.1 mm 3 m/s 747 mmHg 76%
    23:00 +12°C° 0.2 mm 3 m/s 747 mmHg 78%

    14 Avril, Mardi

    Heure Température Précipitation Vent Pression Humidité
    00:00 +12°C° 0.2 mm 3 m/s 748 mmHg 80%
    01:00 +11°C° 0.2 mm 4 m/s 748 mmHg 82%
    02:00 +11°C° 0 mm 4 m/s 748 mmHg 81%
    03:00 +9°C° 0 mm 5 m/s 749 mmHg 81%
    04:00 +9°C° 0 mm 5 m/s 749 mmHg 81%
    05:00 +8°C° 0 mm 5 m/s 749 mmHg 80%
    06:00 +8°C° 0 mm 5 m/s 749 mmHg 79%
    07:00 +7°C° 0 mm 5 m/s 750 mmHg 79%
    08:00 +8°C° 0 mm 5 m/s 749 mmHg 73%
    09:00 +9°C° 0 mm 5 m/s 749 mmHg 67%
    10:00 +10°C° 0 mm 6 m/s 749 mmHg 62%
    11:00 +11°C° 0 mm 6 m/s 749 mmHg 56%
    12:00 +13°C° 0 mm 6 m/s 749 mmHg 51%
    13:00 +15°C° 0 mm 6 m/s 748 mmHg 45%
    14:00 +15°C° 0 mm 6 m/s 748 mmHg 43%
    15:00 +15°C° 0 mm 7 m/s 747 mmHg 42%
    16:00 +15°C° 0 mm 7 m/s 747 mmHg 40%
    17:00 +14°C° 0 mm 6 m/s 746 mmHg 43%
    18:00 +11°C° 0 mm 6 m/s 746 mmHg 46%
    19:00 +10°C° 0 mm 5 m/s 746 mmHg 50%
    20:00 +9°C° 0 mm 5 m/s 746 mmHg 50%
    21:00 +8°C° 0 mm 5 m/s 746 mmHg 51%
    22:00 +7°C° 0 mm 5 m/s 746 mmHg 51%
    23:00 +6°C° 0 mm 5 m/s 746 mmHg 53%
    Voir plus